SCP
0 0 0 0 0 0 0 0 0 0 0 0 0 0 0 0 0 0 0 0 0 0 0 0 0 0 0 0 0 0 0 0 0 0 0 0 0 0 0 0 0 0 0
0 0 0 0 0 0 0 0 0 0 0 0 0 0 0 0 0 0 0 0 0 0 0 0 0 0 0 0 0 0 0 0 0 0 0 0 0 0 0 0 0 0 0
0 0 0 0 0 0 0 0 0 0 0 0 0 0 0 0 0 0 0 0 0 0 0 0 0 0 0 0 0 0 0 0 0 0 0 0 0 0 0 0 0 0 0
0 0 0 0 0 0 0 0 0 0 0 0 0 0 0 0 0 0 0 0 0 0 0 0 0 0 0 0 0 0 0 0 0 0 0 -0 0 0 0 0 0 0 0
0 0 0 0 0 0 0 0 0 0 0 0 0 0 0 0 0 0 0 0 0 0 0 0 0 0 0 0 -0 -0 -0 0 0 0 0 0 0 0 0 0 0 0 0
1 0 0 1 0 0 0 0 0 0 0 0 0 0 0 0 0 0 0 0 0 0 0 0 0 0 0 0 -0 -0 -0 0 0 0 0 0 0 0 0 0 0 0 0
1 1 0 1 1 0 0 0 0 0 0 0 0 0 0 0 0 0 0 0 0 0 0 0 0 0 0 0 -0 -0 0 0 0 0 0 0 0 0 0 0 0 0 0
1 0 0 0 0 0 0 0 0 0 0 0 0 0 0 0 0 0 0 0 0 0 0 0 0 0 0 0 -0 -0 0 0 0 0 0 0 0 0 0 0 0 0 0
0 0 0 0 0 0 0 0 0 0 0 0 0 0 0 0 0 0 0 0 0 0 0 0 0 0 0 -0 -0 -0 -0 0 0 0 0 0 0 0 0 0 0 0 0
0 0 0 0 0 0 0 0 0 0 0 0 0 0 0 0 0 0 0 0 0 0 0 0 0 0 0 0 -0 -0 0 0 0 0 0 0 0 0 0 0 0 0 0
0 0 0 0 0 0 0 0 0 0 0 0 0 0 0 0 0 0 0 0 0 0 0 0 0 0 0 0 0 0 0 0 0 0 0 0 0 0 0 0 0 0 0
0 0 0 0 0 0 0 0 0 0 0 0 0 0 0 0 0 0 0 0 0 0 0 0 0 0 0 0 0 0 0 0 0 0 0 0 0 0 0 0 0 0 0
0 0 0 0 0 0 0 0 0 0 0 0 0 0 0 0 0 0 0 0 0 0 0 0 0 0 0 0 0 0 0 0 0 0 0 0 0 0 0 0 0 0 0
0 0 0 0 0 0 0 0 0 0 0 0 0 0 0 0 0 0 0 0 0 0 0 0 0 0 0 0 0 0 0 0 0 0 0 0 0 0 0 0 0 0 0
0 0 0 0 0 0 0 0 0 0 0 0 0 0 0 0 0 0 0 0 0 0 0 0 0 0 0 0 0 0 0 0 0 0 0 0 0 1 0 0 0 0 0
0 0 0 0 0 0 0 0 0 0 0 0 0 0 0 0 0 0 0 0 0 0 0 0 0 0 0 0 0 0 0 0 0 0 0 0 0 0 0 0 0 0 0
0 0 0 0 0 0 0 0 0 0 0 0 0 0 0 0 0 0 0 0 0 0 0 0 0 0 0 0 0 0 0 0 0 0 0 0 0 0 0 0 0 0 0
0 0 0 0 0 0 0 0 0 0 0 0 0 0 0 0 0 0 0 0 0 0 0 0 0 0 0 0 0 0 0 0 0 0 0 0 0 0 0 0 0 1 1
0 0 0 0 0 0 0 0 0 0 0 0 0 0 0 0 0 0 0 0 0 0 0 0 0 0 0 0 0 0 0 0 0 0 0 0 0 0 0 0 1 1 1
0 0 0 0 0 0 0 0 0 0 0 0 0 0 0 0 0 0 0 0 0 0 0 0 0 0 0 0 0 0 0 0 0 0 0 0 0 0 0 0 0 1 1
0 0 0 0 0 0 0 0 0 0 0 0 0 0 0 0 0 0 0 0 0 0 0 0 0 0 0 0 0 0 0 0 0 0 0 0 0 0 0 0 0 0 1
0 0 0 0 0 0 0 0 0 0 0 0 0 0 0 0 0 0 0 0 0 0 0 0 0 0 0 0 0 0 0 0 0 0 0 0 0 0 0 0 0 0 0
0 0 0 0 0 0 0 0 0 0 0 0 0 0 0 0 0 0 0 0 0 0 0 0 0 0 0 0 0 0 0 0 0 0 0 0 0 0 0 0 0 0 0
0 0 0 0 0 0 0 0 0 0 0 0 0 0 0 0 0 0 0 0 0 0 0 0 0 0 0 0 0 0 0 0 0 0 0 0 0 0 0 0 0 0 0
0 0 0 0 0 0 0 0 0 0 0 0 0 0 0 0 0 0 0 0 0 0 0 0 0 0 0 0 0 0 0 0 0 0 0 0 0 0 0 0 0 0 0
0 0 0 0 0 0 0 0 0 0 0 0 0 0 0 0 0 0 0 0 0 0 0 0 0 0 0 0 0 0 0 0 0 0 0 0 0 0 0 0 0 0 0
Wind_Speed
8 9 16 17 18 18 17 17 17 18 18 18 18 18 18 18 18 17 16 15 14 14 13 12 12 11 11 12 12 12 13 14 14 15 15 15 15 16 16 17 16 12 18
13 12 17 17 18 18 17 17 17 17 17 17 17 17 17 17 16 16 15 14 14 13 13 12 11 11 11 11 11 12 12 13 14 14 14 13 15 15 15 16 15 11 17
15 12 15 17 17 17 17 17 17 17 17 16 16 16 16 16 15 15 14 14 13 12 12 11 11 10 10 10 10 10 11 11 13 13 12 6 9 14 15 16 17 17 17
15 10 13 18 17 17 17 16 16 16 16 16 15 15 15 15 14 14 14 13 13 12 11 11 10 10 9 9 9 8 8 9 11 11 6 5 7 14 16 16 16 16 16
12 9 13 19 18 17 16 16 15 16 15 15 15 14 14 14 13 13 13 12 12 11 11 10 10 9 9 8 7 7 7 7 8 7 5 5 6 13 16 16 16 16 16
10 9 13 18 18 17 16 16 15 15 15 14 14 14 13 13 13 13 12 11 11 11 10 10 9 9 8 7 6 6 5 5 6 5 5 5 6 13 15 15 15 15 15
10 8 11 17 17 17 16 15 15 15 14 14 13 13 13 12 12 12 11 11 10 10 10 9 9 8 7 6 5 4 4 4 4 5 5 5 7 13 14 15 15 15 15
12 8 9 16 17 16 15 15 14 14 13 13 13 13 12 11 11 10 10 10 10 9 9 9 8 8 7 5 4 3 2 3 5 6 6 5 10 13 15 15 15 15 15
10 9 7 8 11 14 14 14 13 12 12 12 12 12 11 11 10 10 9 9 9 9 9 9 8 8 7 6 4 3 2 3 3 3 7 5 12 15 16 15 15 14 14
8 7 6 5 5 6 8 12 12 12 12 11 11 11 10 10 10 10 8 8 9 9 9 9 9 8 7 6 5 4 3 2 2 3 4 7 14 16 16 16 15 15 14
6 5 5 5 5 5 5 9 9 10 10 9 8 10 8 4 4 5 8 10 10 10 9 9 8 8 8 7 7 6 3 1 2 3 4 10 15 16 17 16 16 15 15
4 4 4 5 5 5 5 5 3 4 4 3 2 3 3 2 3 5 7 10 10 10 10 9 9 8 6 3 4 5 1 2 2 3 5 13 16 17 17 17 16 16 15
4 4 3 4 3 3 3 3 2 2 2 2 2 2 2 2 1 2 2 3 4 6 4 5 5 3 3 3 2 3 3 2 2 3 5 14 15 16 17 17 17 16 16
5 4 4 5 4 4 4 2 2 2 2 2 2 3 2 1 1 1 1 2 2 1 3 3 2 4 4 4 4 4 4 3 2 2 5 15 15 16 16 18 18 17 17
6 4 4 5 5 4 4 2 3 2 2 2 1 2 3 2 1 1 1 1 1 1 2 2 3 3 4 4 3 4 4 4 4 4 4 14 16 16 17 17 18 18 18
6 5 5 5 5 5 4 3 3 2 2 2 2 3 3 2 2 1 1 1 0 1 1 2 3 3 3 2 3 3 3 4 4 5 5 9 17 17 17 18 19 19 19
6 5 5 5 5 5 4 4 3 2 2 2 2 2 3 2 2 2 1 1 0 1 1 1 1 2 2 3 3 3 3 4 4 5 6 5 7 14 18 18 18 19 19
6 6 5 6 6 5 4 3 2 2 2 2 2 2 3 3 3 2 1 1 1 1 0 0 0 1 1 1 1 2 2 3 4 5 5 6 5 6 12 18 18 18 19
6 7 7 6 6 5 4 3 3 2 2 1 2 2 2 3 3 2 1 1 1 1 1 0 0 0 1 1 2 2 2 3 4 5 6 7 7 6 6 12 18 18 20
7 7 7 7 6 4 3 3 3 3 2 1 2 2 3 2 3 2 2 2 2 2 1 1 1 0 1 1 3 2 2 3 3 4 6 6 6 8 8 9 9 12 19
7 7 6 6 4 3 3 3 2 2 2 2 2 3 3 3 3 3 2 2 2 2 2 1 1 1 1 0 0 2 3 3 4 4 4 5 6 8 8 8 7 7 8
7 6 6 5 4 3 2 1 1 1 2 2 2 3 3 2 2 2 2 2 2 2 3 3 2 1 1 1 1 0 2 3 2 3 3 4 6 5 7 9 8 8 7
7 6 6 5 4 4 4 3 3 4 3 3 3 3 3 3 2 2 2 2 2 2 2 2 2 2 1 1 0 2 1 2 3 2 2 2 3 4 5 5 8 9 9
7 6 6 5 5 4 4 5 5 3 2 2 2 2 3 4 3 2 2 2 2 2 2 1 2 1 1 1 2 0 1 2 1 3 3 1 2 3 5 6 6 7 8
7 7 6 5 4 4 4 5 4 3 1 1 2 4 4 4 4 3 3 2 2 1 1 1 1 1 0 1 0 1 1 1 1 1 3 3 2 2 3 4 4 4 6
7 7 6 6 4 4 4 4 4 4 3 3 3 3 3 3 3 4 3 2 1 1 1 1 1 1 1 1 1 1 1 1 1 1 2 2 3 3 3 2 3 3 4
Wind_Direction
152 154 144 136 131 127 124 120 117 115 113 111 110 109 109 110 111 112 114 115 115 113 110 108 106 104 104 104 104 104 106 107 110 112 114 115 116 116 115 114 112 111 113
150 151 143 138 134 131 128 125 122 120 117 115 115 114 113 114 114 114 115 115 116 114 111 110 109 107 106 107 107 107 109 110 112 113 112 112 116 118 116 115 114 118 117
141 143 141 139 136 133 131 130 128 125 123 121 120 120 119 119 119 119 118 117 117 117 115 115 114 112 110 110 111 111 112 114 116 115 110 104 114 119 120 119 119 119 118
137 138 140 139 138 136 135 134 132 130 129 127 126 126 125 124 123 124 123 122 122 120 118 119 119 117 116 115 115 116 118 119 121 121 111 111 117 122 123 122 122 121 121
132 135 143 140 139 138 138 136 135 135 134 133 132 132 131 130 129 128 127 127 126 125 124 123 124 123 123 122 121 120 119 121 126 120 114 111 113 127 126 126 125 123 124
129 133 141 139 139 140 140 139 138 138 138 137 137 137 137 137 137 136 135 134 133 132 130 130 131 131 131 131 128 125 124 125 121 115 125 125 126 134 132 132 130 128 128
129 129 137 139 139 141 142 143 142 142 142 142 142 143 143 143 144 145 145 143 141 139 139 140 141 140 141 140 138 129 121 122 126 132 137 136 139 140 138 136 135 133 133
130 127 136 139 140 141 143 144 145 145 145 145 148 149 150 150 151 152 152 151 150 148 149 150 151 151 152 153 152 145 133 134 125 145 146 147 151 146 143 141 140 139 138
129 130 131 139 141 143 145 145 147 148 148 150 152 154 155 158 159 161 161 160 159 159 160 162 164 165 167 173 177 182 181 144 116 147 158 158 159 153 150 148 147 146 145
122 129 127 127 129 135 141 145 149 153 154 157 159 161 163 166 168 171 170 173 172 171 172 175 178 179 181 188 199 213 223 146 135 164 154 169 167 161 157 156 155 153 152
106 125 127 125 126 133 142 150 151 154 157 161 166 169 167 169 174 180 185 187 187 186 185 187 190 191 193 202 214 225 236 136 149 164 168 179 173 168 164 163 162 161 159
109 132 136 135 139 144 148 134 139 145 147 150 159 166 159 166 188 191 200 198 195 196 196 198 201 203 201 206 228 231 215 178 170 179 187 183 178 174 171 170 169 168 166
116 114 110 116 120 131 119 132 138 136 137 140 146 147 144 143 159 158 163 192 194 197 195 203 206 202 198 203 215 217 213 198 182 192 191 184 181 180 178 177 176 175 173
97 102 104 104 107 109 112 126 124 117 118 120 132 132 129 125 118 122 144 166 167 184 185 182 197 203 207 211 217 220 218 206 185 187 195 186 185 186 184 185 183 181 179
114 110 91 90 97 94 87 95 100 100 106 104 100 102 110 117 127 131 116 138 165 186 193 183 188 203 214 217 222 219 216 212 195 182 185 187 190 193 190 191 191 188 186
117 108 101 92 91 95 94 91 88 86 91 93 89 84 90 97 92 85 84 87 164 215 212 200 194 194 209 215 222 216 215 211 197 184 193 198 198 195 195 197 198 196 193
116 111 107 100 82 85 84 82 83 81 90 96 97 93 96 93 90 83 69 57 283 238 225 217 217 186 207 214 217 216 211 216 205 193 192 198 204 203 200 202 204 202 200
114 102 90 93 81 77 75 76 80 80 88 91 92 91 97 94 89 80 66 25 2 50 71 106 167 188 214 213 230 238 218 210 215 206 194 201 206 206 207 209 208 207 206
111 102 87 78 74 70 62 58 62 67 75 84 90 89 86 81 84 89 71 37 39 45 24 342 74 174 235 259 254 243 229 219 217 216 204 203 204 205 204 213 213 212 212
105 96 88 75 67 65 56 44 40 45 47 67 86 86 81 73 78 80 66 43 49 44 10 358 350 333 237 244 264 265 242 228 219 215 217 212 208 211 209 213 213 217 217
106 99 92 86 68 60 51 47 43 28 20 36 54 79 78 74 79 83 68 52 53 53 17 11 7 341 309 309 5 316 296 252 231 225 219 214 215 214 209 211 210 209 216
124 114 105 95 79 64 62 68 80 68 51 53 35 36 42 56 67 95 92 78 64 56 33 26 37 40 334 19 122 37 329 330 296 238 221 217 221 218 218 217 212 211 211
133 131 122 115 100 82 72 59 49 43 30 22 14 1 353 12 30 61 89 88 69 68 44 27 52 77 13 330 123 144 147 266 304 308 253 233 229 224 226 222 218 215 213
148 138 129 123 109 96 84 78 78 78 57 354 331 340 347 3 15 55 77 81 74 70 54 18 57 62 83 1 343 12 195 197 238 312 321 303 259 236 233 232 227 217 215
149 140 133 124 112 103 95 99 94 83 65 358 10 15 9 7 20 51 77 74 70 64 53 30 26 31 120 181 244 306 331 308 204 201 293 317 321 284 257 237 231 225 218
145 142 138 130 124 118 109 106 105 96 68 47 35 25 11 7 13 22 50 54 53 41 354 319 321 309 257 234 226 206 192 211 235 203 245 282 289 284 279 259 237 232 224